| time (UTC) | temp C | wind direction | speed KPH | gust KPH | rain 1hr cm | rain 24hr cm | rain mn cm | humidity % | barometer mb |
| 20260905211439 | 18 | 259 | 1.6 | 6.4 | 0.00 | 0.15 | 0.15 | 68 | 1021.3 |
| 20260905210227 | 18 | 259 | 0.0 | 4.8 | 0.00 | 0.15 | 0.15 | 68 | 1021.3 |
| 20260905205225 | 18 | 259 | 1.6 | 4.8 | 0.00 | 0.15 | 0.15 | 67 | 1021.0 |
| 20260905204226 | 18 | 259 | 4.8 | 6.4 | 0.00 | 0.15 | 0.15 | 67 | 1021.0 |
| 20260905203227 | 18 | 259 | 0.0 | 4.8 | 0.00 | 0.15 | 0.15 | 66 | 1020.7 |
| 20260905202228 | 18 | 259 | 1.6 | 3.2 | 0.00 | 0.15 | 0.15 | 64 | 1020.7 |
| 20260905201225 | 18 | 259 | 1.6 | 3.2 | 0.00 | 0.15 | 0.15 | 64 | 1020.7 |
| 20260905200439 | 19 | 259 | 1.6 | 3.2 | 0.00 | 0.15 | 0.15 | 63 | 1020.7 |
| 20260905195225 | 19 | 259 | 0.0 | 4.8 | 0.00 | 0.15 | 0.15 | 61 | 1020.7 |
| 20260905194439 | 19 | 259 | 0.0 | 3.2 | 0.00 | 0.15 | 0.15 | 59 | 1020.7 |
| 20260905193226 | 19 | 259 | 0.0 | 3.2 | 0.00 | 0.15 | 0.15 | 57 | 1020.3 |
| 20260905192441 | 20 | 259 | 0.0 | 1.6 | 0.00 | 0.15 | 0.15 | 55 | 1020.3 |
| 20260905191227 | 20 | 259 | 1.6 | 4.8 | 0.00 | 0.15 | 0.15 | 54 | 1020.3 |
| 20260905190225 | 20 | 259 | 0.0 | 3.2 | 0.00 | 0.15 | 0.15 | 53 | 1020.3 |
| 20260905185227 | 20 | 259 | 3.2 | 3.2 | 0.00 | 0.15 | 0.15 | 53 | 1020.0 |
| 20260905184227 | 21 | 259 | 0.0 | 3.2 | 0.00 | 0.15 | 0.15 | 52 | 1020.0 |
| 20260905183439 | 21 | 259 | 0.0 | 3.2 | 0.00 | 0.15 | 0.15 | 51 | 1019.6 |
| 20260905182225 | 21 | 259 | 0.0 | 3.2 | 0.00 | 0.15 | 0.15 | 51 | 1019.6 |
| 20260905181226 | 21 | 259 | 0.0 | 4.8 | 0.00 | 0.15 | 0.15 | 49 | 1019.6 |
| 20260905180225 | 21 | 261 | 0.0 | 4.8 | 0.00 | 0.15 | 0.15 | 49 | 1019.3 |
| 20260905175227 | 21 | 261 | 0.0 | 3.2 | 0.00 | 0.15 | 0.15 | 48 | 1019.0 |
| 20260905174226 | 22 | 261 | 0.0 | 11.3 | 0.00 | 0.15 | 0.15 | 47 | 1019.0 |
| 20260905173441 | 22 | 258 | 0.0 | 4.8 | 0.00 | 0.15 | 0.15 | 46 | 1019.0 |
| 20260905172225 | 22 | 257 | 1.6 | 12.9 | 0.00 | 0.15 | 0.15 | 46 | 1019.0 |
| 20260905171227 | 22 | 296 | 8.0 | 11.3 | 0.00 | 0.15 | 0.15 | 45 | 1019.0 |
| 20260905170227 | 23 | 256 | 1.6 | 14.5 | 0.00 | 0.15 | 0.15 | 45 | 1019.0 |
| 20260905165227 | 23 | 255 | 11.3 | 14.5 | 0.00 | 0.15 | 0.15 | 44 | 1018.6 |
| 20260905164225 | 23 | 313 | 1.6 | 9.7 | 0.00 | 0.15 | 0.15 | 42 | 1018.6 |
| 20260905163225 | 24 | 15 | 4.8 | 16.1 | 0.00 | 0.15 | 0.15 | 42 | 1018.6 |
| 20260905162225 | 24 | 9 | 4.8 | 19.3 | 0.00 | 0.15 | 0.15 | 41 | 1018.3 |
| 20260905161224 | 24 | 236 | 8.0 | 20.9 | 0.00 | 0.15 | 0.15 | 41 | 1018.3 |
| 20260905160227 | 25 | 13 | 1.6 | 12.9 | 0.00 | 0.15 | 0.15 | 42 | 1018.3 |
| 20260905155227 | 25 | 236 | 4.8 | 19.3 | 0.00 | 0.15 | 0.15 | 41 | 1018.3 |
| 20260905154225 | 25 | 213 | 3.2 | 17.7 | 0.00 | 0.15 | 0.15 | 42 | 1018.3 |
| 20260905153226 | 25 | 38 | 3.2 | 24.1 | 0.00 | 0.15 | 0.15 | 41 | 1018.3 |
| 20260905152439 | 25 | 9 | 3.2 | 17.7 | 0.00 | 0.15 | 0.15 | 41 | 1017.9 |
| 20260905151443 | 25 | 232 | 6.4 | 19.3 | 0.00 | 0.15 | 0.15 | 41 | 1018.3 |
| 20260905150227 | 25 | 355 | 12.9 | 17.7 | 0.00 | 0.15 | 0.15 | 41 | 1017.9 |
| 20260905145227 | 25 | 252 | 4.8 | 24.1 | 0.00 | 0.15 | 0.15 | 41 | 1018.3 |
| 20260905144439 | 25 | 15 | 1.6 | 20.9 | 0.00 | 0.15 | 0.15 | 41 | 1017.9 |
| 20260905143439 | 25 | 15 | 1.6 | 20.9 | 0.00 | 0.15 | 0.15 | 41 | 1017.9 |
| 20260905142438 | 25 | 275 | 3.2 | 14.5 | 0.00 | 0.15 | 0.15 | 42 | 1017.9 |
| 20260905141226 | 25 | 5 | 9.7 | 16.1 | 0.00 | 0.15 | 0.15 | 42 | 1017.9 |
| 20260905140224 | 25 | 195 | 4.8 | 22.5 | 0.00 | 0.15 | 0.15 | 41 | 1017.9 |
| 20260905135227 | 25 | 232 | 4.8 | 16.1 | 0.00 | 0.15 | 0.15 | 41 | 1018.3 |
| 20260905134441 | 25 | 241 | 6.4 | 17.7 | 0.00 | 0.15 | 0.15 | 42 | 1018.3 |
| 20260905133225 | 24 | 212 | 1.6 | 22.5 | 0.00 | 0.15 | 0.15 | 45 | 1018.3 |
| 20260905132441 | 24 | 11 | 14.5 | 22.5 | 0.00 | 0.15 | 0.15 | 44 | 1018.6 |
| 20260905131226 | 24 | 360 | 12.9 | 17.7 | 0.00 | 0.15 | 0.15 | 44 | 1018.3 |
| 20260905130228 | 25 | 233 | 6.4 | 17.7 | 0.00 | 0.15 | 0.15 | 46 | 1018.3 |
| 20260905125227 | 25 | 355 | 3.2 | 19.3 | 0.03 | 0.15 | 0.15 | 45 | 1018.3 |
| 20260905124440 | 25 | 51 | 6.4 | 20.9 | 0.03 | 0.15 | 0.15 | 44 | 1018.3 |
| 20260905123226 | 25 | 250 | 4.8 | 16.1 | 0.03 | 0.15 | 0.15 | 46 | 1018.3 |
| 20260905122227 | 25 | 239 | 6.4 | 17.7 | 0.03 | 0.15 | 0.15 | 46 | 1018.3 |
| 20260905121442 | 24 | 240 | 1.6 | 16.1 | 0.03 | 0.15 | 0.15 | 48 | 1018.3 |
| 20260905120225 | 23 | 17 | 4.8 | 19.3 | 0.03 | 0.15 | 0.15 | 50 | 1018.3 |
| 20260905115226 | 23 | 17 | 0.0 | 16.1 | 0.00 | 0.15 | 0.15 | 50 | 1018.3 |
| 20260905114227 | 23 | 267 | 3.2 | 20.9 | 0.00 | 0.15 | 0.15 | 52 | 1018.6 |
| 20260905113226 | 22 | 248 | 3.2 | 11.3 | 0.00 | 0.15 | 0.15 | 58 | 1018.3 |
| 20260905112439 | 22 | 264 | 6.4 | 17.7 | 0.00 | 0.15 | 0.15 | 63 | 1018.6 |
| 20260905111226 | 22 | 226 | 4.8 | 19.3 | 0.00 | 0.15 | 0.15 | 65 | 1018.6 |
| 20260905110227 | 21 | 211 | 1.6 | 11.3 | 0.00 | 0.15 | 0.15 | 71 | 1018.6 |
| 20260905105440 | 20 | 246 | 3.2 | 14.5 | 0.00 | 0.15 | 0.15 | 73 | 1019.0 |
| 20260905104225 | 20 | 206 | 4.8 | 17.7 | 0.00 | 0.15 | 0.15 | 72 | 1019.0 |
| 20260905103225 | 20 | 241 | 4.8 | 11.3 | 0.00 | 0.15 | 0.15 | 75 | 1019.0 |
| 20260905102441 | 19 | 246 | 4.8 | 16.1 | 0.00 | 0.15 | 0.15 | 77 | 1019.0 |
| 20260905101226 | 18 | 229 | 3.2 | 16.1 | 0.00 | 0.15 | 0.15 | 80 | 1019.0 |
| 20260905100226 | 18 | 202 | 6.4 | 9.7 | 0.00 | 0.15 | 0.15 | 82 | 1019.0 |
| 20260905095226 | 17 | 235 | 8.0 | 14.5 | 0.00 | 0.15 | 0.15 | 84 | 1019.0 |
| 20260905094439 | 17 | 209 | 4.8 | 14.5 | 0.00 | 0.15 | 0.15 | 86 | 1019.0 |
| 20260905093225 | 17 | 213 | 8.0 | 8.0 | 0.00 | 0.15 | 0.15 | 88 | 1019.3 |
| 20260905092226 | 16 | 233 | 4.8 | 8.0 | 0.03 | 0.15 | 0.15 | 89 | 1019.3 |
| 20260905091224 | 16 | 236 | 6.4 | 6.4 | 0.03 | 0.15 | 0.15 | 90 | 1019.3 |
| 20260905090226 | 16 | 238 | 0.0 | 3.2 | 0.03 | 0.15 | 0.15 | 90 | 1019.3 |
| 20260905085228 | 16 | 238 | 1.6 | 4.8 | 0.05 | 0.15 | 0.15 | 90 | 1019.3 |
| 20260905084224 | 15 | 238 | 4.8 | 11.3 | 0.05 | 0.15 | 0.15 | 89 | 1019.3 |
| 20260905083224 | 15 | 238 | 4.8 | 11.3 | 0.05 | 0.15 | 0.15 | 89 | 1019.3 |
| 20260905082225 | 15 | 226 | 0.0 | 6.4 | 0.05 | 0.15 | 0.15 | 89 | 1019.6 |
| 20260905081225 | 15 | 223 | 3.2 | 8.0 | 0.03 | 0.13 | 0.13 | 89 | 1019.0 |
| 20260905080225 | 15 | 208 | 4.8 | 12.9 | 0.03 | 0.13 | 0.13 | 88 | 1019.0 |
| 20260905075227 | 16 | 206 | 4.8 | 9.7 | 0.03 | 0.13 | 0.13 | 87 | 1018.6 |
| 20260905074225 | 16 | 201 | 3.2 | 6.4 | 0.03 | 0.10 | 0.10 | 86 | 1018.6 |
| 20260905073441 | 16 | 199 | 0.0 | 6.4 | 0.03 | 0.10 | 0.10 | 84 | 1019.0 |
| 20260905072227 | 16 | 200 | 0.0 | 9.7 | 0.03 | 0.10 | 0.10 | 83 | 1019.0 |
| 20260905071226 | 16 | 360 | 0.0 | 1.6 | 0.05 | 0.10 | 0.10 | 83 | 1019.0 |
| 20260905070225 | 16 | 360 | 0.0 | 6.4 | 0.05 | 0.10 | 0.10 | 84 | 1018.6 |
| 20260905065226 | 15 | 360 | 0.0 | 4.8 | 0.05 | 0.10 | 0.10 | 84 | 1018.6 |
| 20260905064225 | 15 | 221 | 0.0 | 4.8 | 0.05 | 0.08 | 0.08 | 86 | 1018.3 |
| 20260905063226 | 16 | 235 | 3.2 | 6.4 | 0.05 | 0.08 | 0.08 | 85 | 1019.3 |
| 20260905062225 | 16 | 12 | 0.0 | 1.6 | 0.08 | 0.08 | 0.08 | 84 | 1017.9 |
| 20260905061226 | 16 | 12 | 0.0 | 0.0 | 0.05 | 0.05 | 0.05 | 82 | 1018.3 |
| 20260905060227 | 16 | 12 | 0.0 | 0.0 | 0.05 | 0.05 | 0.05 | 79 | 1017.9 |
| 20260905055440 | 16 | 12 | 0.0 | 1.6 | 0.05 | 0.05 | 0.05 | 76 | 1018.3 |
| 20260905054227 | 17 | 12 | 0.0 | 8.0 | 0.05 | 0.05 | 0.05 | 70 | 1018.3 |
| 20260905053440 | 18 | 5 | 3.2 | 9.7 | 0.00 | 0.00 | 0.00 | 64 | 1018.3 |
| 20260905052227 | 18 | 15 | 3.2 | 6.4 | 0.00 | 0.00 | 0.00 | 58 | 1017.6 |
| 20260905051227 | 18 | 25 | 3.2 | 14.5 | 0.00 | 0.00 | 0.00 | 57 | 1017.3 |
| 20260905050225 | 19 | 17 | 1.6 | 8.0 | 0.00 | 0.00 | 0.00 | 56 | 1016.9 |
| 20260905045227 | 19 | 35 | 1.6 | 4.8 | 0.00 | 0.00 | 0.00 | 56 | 1016.6 |
| 20260905044439 | 19 | 38 | 1.6 | 4.8 | 0.00 | 0.00 | 0.00 | 55 | 1016.9 |
| 20260905043228 | 19 | 38 | 1.6 | 9.7 | 0.00 | 0.00 | 0.00 | 53 | 1016.6 |
| 20260905042225 | 20 | 51 | 3.2 | 20.9 | 0.00 | 0.00 | 0.00 | 55 | 1016.3 |
| 20260905041441 | 19 | 26 | 1.6 | 6.4 | 0.00 | 0.00 | 0.00 | 57 | 1015.9 |
| 20260905040225 | 19 | 37 | 0.0 | 1.6 | 0.00 | 0.00 | 0.00 | 61 | 1015.6 |
| 20260905035226 | 20 | 37 | 0.0 | 3.2 | 0.00 | 0.00 | 0.00 | 61 | 1015.6 |
| 20260905034439 | 20 | 43 | 1.6 | 8.0 | 0.00 | 0.00 | 0.00 | 60 | 1015.6 |
| 20260905033227 | 20 | 18 | 0.0 | 9.7 | 0.00 | 0.00 | 0.00 | 60 | 1015.6 |
| 20260905032225 | 20 | 355 | 3.2 | 9.7 | 0.00 | 0.00 | 0.00 | 59 | 1015.2 |
| 20260905031226 | 20 | 29 | 3.2 | 6.4 | 0.00 | 0.00 | 0.00 | 59 | 1014.6 |
| 20260905030227 | 20 | 32 | 4.8 | 6.4 | 0.00 | 0.00 | 0.00 | 59 | 1014.2 |
| 20260905025439 | 21 | 51 | 1.6 | 11.3 | 0.00 | 0.00 | 0.00 | 60 | 1014.2 |
| 20260905024225 | 21 | 349 | 0.0 | 14.5 | 0.00 | 0.00 | 0.00 | 61 | 1013.9 |
| 20260905023225 | 22 | 14 | 11.3 | 16.1 | 0.00 | 0.00 | 0.00 | 62 | 1013.5 |
| 20260905022226 | 23 | 22 | 1.6 | 17.7 | 0.00 | 0.00 | 0.00 | 59 | 1013.2 |
| 20260905021225 | 23 | 22 | 1.6 | 17.7 | 0.00 | 0.00 | 0.00 | 59 | 1013.2 |
| 20260905020223 | 23 | 226 | 0.0 | 0.0 | 0.00 | 0.00 | 0.00 | 58 | 1012.5 |
| 20260905015225 | 25 | 225 | 0.0 | 0.0 | 0.00 | 0.00 | 0.00 | 55 | 1012.2 |
| 20260905014225 | 25 | 246 | 0.0 | 0.0 | 0.00 | 0.00 | 0.00 | 49 | 1012.2 |
| 20260905013225 | 25 | 268 | 0.0 | 0.0 | 0.00 | 0.00 | 0.00 | 48 | 1012.2 |
| 20260905012227 | 25 | 236 | 0.0 | 0.0 | 0.00 | 0.00 | 0.00 | 48 | 1011.9 |
| 20260905011439 | 25 | 236 | 0.0 | 0.0 | 0.00 | 0.00 | 0.00 | 48 | 1011.9 |
| 20260905010225 | 25 | 236 | 0.0 | 0.0 | 0.00 | 0.00 | 0.00 | 48 | 1011.9 |
| 20260905005441 | 25 | 236 | 0.0 | 0.0 | 0.00 | 0.00 | 0.00 | 47 | 1011.9 |
| 20260905004227 | 25 | 236 | 0.0 | 0.0 | 0.00 | 0.00 | 0.00 | 48 | 1011.9 |
| 20260905003227 | 25 | 236 | 0.0 | 0.0 | 0.00 | 0.00 | 0.00 | 48 | 1011.5 |
| 20260905002225 | 25 | 236 | 0.0 | 0.0 | 0.00 | 0.00 | 0.00 | 48 | 1011.5 |
| 20260905001225 | 25 | 238 | 0.0 | 0.0 | 0.00 | 0.00 | 0.00 | 48 | 1011.5 |
| 20260905000226 | 24 | 240 | 0.0 | 0.0 | 0.00 | 0.00 | 0.00 | 48 | 1011.5 |
| 20260904235225 | 24 | 240 | 0.0 | 0.0 | 0.00 | 0.00 | 0.00 | 49 | 1011.5 |
| 20260904234226 | 24 | 239 | 0.0 | 0.0 | 0.00 | 0.00 | 0.00 | 49 | 1011.5 |
| 20260904233225 | 24 | 266 | 0.0 | 0.0 | 0.00 | 0.00 | 0.00 | 49 | 1011.5 |
| 20260904232227 | 24 | 266 | 0.0 | 0.0 | 0.00 | 0.00 | 0.00 | 49 | 1011.2 |
| 20260904231227 | 24 | 267 | 0.0 | 0.0 | 0.00 | 0.00 | 0.00 | 49 | 1011.2 |
| 20260904230227 | 24 | 267 | 0.0 | 0.0 | 0.00 | 0.00 | 0.00 | 49 | 1011.2 |
| 20260904225224 | 24 | 267 | 0.0 | 0.0 | 0.00 | 0.00 | 0.00 | 49 | 1011.2 |
| 20260904224225 | 24 | 267 | 0.0 | 0.0 | 0.00 | 0.00 | 0.00 | 49 | 1011.2 |
| 20260904223226 | 23 | 267 | 0.0 | 0.0 | 0.00 | 0.00 | 0.00 | 51 | 1011.2 |
| 20260904222227 | 23 | 267 | 0.0 | 0.0 | 0.00 | 0.00 | 0.00 | 50 | 1011.2 |
| 20260904221225 | 23 | 267 | 0.0 | 0.0 | 0.00 | 0.00 | 0.00 | 50 | 1011.2 |
| 20260904220225 | 23 | 267 | 0.0 | 0.0 | 0.00 | 0.00 | 0.00 | 50 | 1011.2 |
| 20260904215439 | 23 | 267 | 0.0 | 0.0 | 0.00 | 0.00 | 0.00 | 49 | 1011.2 |
| 20260904214225 | 23 | 267 | 0.0 | 0.0 | 0.00 | 0.00 | 0.00 | 48 | 1011.2 |
| 20260904213225 | 23 | 267 | 0.0 | 0.0 | 0.00 | 0.00 | 0.00 | 48 | 1011.2 |
| 20260904212223 | 23 | 267 | 0.0 | 0.0 | 0.00 | 0.00 | 0.00 | 50 | 1011.2 |